Theta_e
336 336 336 335 335 335 335 335 335 336 336 337 337 337 337 336 336 336 335 335 335 336 336 336 336 336 335 335 334 334 334 334 334 334 334 334 334 335 335 334 334 334 333 332 331 331 330 330 329 328 327 326 326 325 324 324 323 323 322 322 321 320 319 318 317 318 319 321 324 322 319 318 317 317 315 312 308 304 300 298 297 296 298 301 301
336 337 336 335 335 334 334 335 335 335 335 336 336 335 336 335 335 335 335 335 336 336 336 336 336 336 335 334 334 333 333 334 333 332 332 332 332 332 332 331 331 330 329 328 328 327 327 326 326 325 324 323 323 322 321 321 320 319 319 319 318 317 317 316 316 316 317 319 320 321 321 319 316 314 314 312 308 304 299 297 296 296 297 299 299
338 337 336 335 335 334 334 334 334 335 335 335 335 335 334 335 334 334 335 335 335 336 336 336 336 336 335 334 334 333 332 332 331 330 329 330 330 329 329 328 328 327 326 325 325 324 324 324 323 323 322 321 321 320 319 318 317 316 317 318 316 315 314 315 315 314 316 317 318 322 323 322 321 315 312 312 309 305 300 296 296 295 296 297 298
339 338 337 335 334 334 333 333 334 334 333 334 334 334 334 334 334 334 335 335 335 336 336 336 335 335 334 334 333 333 331 330 330 327 327 328 327 326 325 324 324 324 323 323 322 322 322 321 321 321 320 319 318 318 316 314 314 314 316 316 315 313 312 312 313 312 313 316 320 323 320 321 326 318 311 311 310 307 301 296 296 295 295 296 297
339 339 337 335 334 334 333 333 333 333 332 333 333 333 334 333 334 334 335 336 335 336 336 335 335 333 332 331 331 330 328 328 328 325 324 326 324 323 322 322 322 322 321 320 320 320 320 319 319 319 318 317 315 314 313 311 311 312 313 314 313 312 310 309 310 310 310 311 315 319 319 322 322 314 311 312 310 308 302 295 295 296 295 295 296
338 338 337 335 335 334 334 333 333 333 332 332 333 333 333 333 333 334 335 335 336 335 335 335 334 333 332 330 329 328 325 325 326 324 323 323 322 321 320 320 320 320 320 319 318 318 318 317 317 316 315 313 312 310 309 309 309 310 310 311 311 311 310 308 307 307 307 307 307 309 312 314 311 309 313 313 309 307 302 296 295 296 295 295 295
337 337 336 335 335 334 334 334 333 333 332 332 333 333 333 333 333 333 335 336 335 335 334 334 334 333 332 331 330 328 325 324 324 323 322 321 320 320 319 319 319 319 318 317 317 317 316 315 314 313 312 310 309 308 308 308 308 308 308 309 310 310 309 308 306 306 305 304 304 303 302 302 302 305 309 312 310 307 301 296 295 295 295 295 295
337 337 336 335 335 334 334 335 334 333 333 333 333 333 333 333 333 333 335 335 335 334 334 333 334 332 332 332 330 329 327 324 322 321 321 320 319 319 318 318 318 318 317 317 316 315 314 313 312 311 309 309 308 308 308 308 308 308 308 308 308 308 307 306 305 305 304 302 301 300 299 297 297 299 302 304 307 307 303 297 295 295 295 295 295
337 337 336 335 334 335 335 335 334 334 334 334 334 334 333 333 333 333 334 335 334 333 333 333 334 333 332 331 329 327 326 323 320 320 319 319 319 318 318 318 318 317 317 317 315 314 313 312 310 309 309 309 309 308 308 308 307 307 307 307 306 306 305 305 304 302 301 300 298 297 297 295 295 295 297 297 298 302 304 299 295 296 295 295 295
337 336 335 335 334 335 335 335 335 335 334 334 334 334 334 333 332 333 334 335 333 332 333 333 333 332 332 331 329 326 323 321 319 319 318 319 319 318 317 317 317 316 316 315 314 313 312 311 309 309 309 309 309 308 307 307 307 306 306 306 306 305 304 303 302 300 298 296 295 295 295 295 295 295 295 296 295 297 300 298 295 296 296 296 295
337 335 335 335 335 335 335 335 335 336 335 334 334 334 334 333 333 333 334 334 333 332 333 333 332 332 332 331 329 326 323 321 320 318 318 319 319 317 316 316 315 315 314 313 313 312 312 311 309 308 308 308 308 307 306 306 306 305 305 305 304 303 302 300 299 297 295 294 294 294 294 294 295 295 295 295 295 296 298 298 295 295 296 295 294
337 335 335 335 335 335 335 335 335 335 335 334 334 334 333 333 333 333 333 333 333 332 332 332 331 331 331 330 329 327 325 323 321 319 319 319 318 317 316 314 314 313 312 312 312 312 311 311 310 308 308 307 307 306 306 305 305 304 303 303 302 300 299 298 296 295 294 294 293 293 293 293 293 294 294 294 294 295 296 297 295 295 296 295 294
336 335 335 335 335 335 335 335 335 334 334 334 334 334 333 332 333 332 332 332 332 332 331 332 331 331 330 330 328 327 326 324 322 320 319 318 318 317 315 313 311 311 311 311 311 311 310 310 309 308 307 307 306 306 305 304 304 303 302 301 300 299 297 296 294 294 293 293 293 293 293 293 293 293 293 294 294 294 295 295 295 294 295 294 293
336 335 335 335 335 335 335 335 335 334 333 333 333 333 332 332 332 332 332 331 331 331 331 331 331 331 330 329 327 326 325 323 322 320 319 318 317 315 313 311 310 310 310 310 310 309 309 309 309 308 306 306 305 305 304 304 303 302 301 301 300 298 296 295 293 293 293 293 293 293 293 293 293 294 294 294 294 294 295 295 295 294 294 294 293
337 336 335 336 336 335 335 335 334 333 332 332 332 332 332 331 332 332 331 331 331 331 331 331 331 330 329 328 327 325 324 322 321 319 318 317 315 313 311 310 309 309 309 308 308 308 308 308 308 307 306 305 304 304 303 303 302 302 301 300 299 297 295 294 293 293 293 293 292 292 293 293 293 294 294 294 294 294 294 294 294 295 295 294 294
337 336 335 336 335 335 335 334 334 333 330 331 331 330 330 330 331 332 331 332 331 332 332 331 331 330 329 328 326 324 323 322 320 318 316 315 313 311 309 308 308 308 308 307 306 306 306 307 306 306 305 305 304 303 303 302 302 301 300 299 298 296 295 294 293 294 294 293 293 293 293 293 293 293 294 294 294 294 294 294 294 294 295 294 294
336 336 335 336 335 335 335 334 334 332 330 331 329 328 329 329 330 330 331 331 331 331 331 330 331 329 327 326 325 324 323 321 319 316 314 312 310 310 309 308 307 307 307 306 306 305 305 306 306 305 305 304 304 303 302 302 301 301 300 299 298 296 295 294 294 294 294 294 293 293 293 292 293 293 293 294 294 294 294 294 294 294 294 294 294
336 337 336 335 335 334 334 334 332 331 330 330 328 326 327 329 330 330 329 329 329 330 330 330 329 327 326 325 324 323 322 320 318 315 313 311 309 309 308 307 306 306 306 306 305 305 304 305 305 305 304 304 303 303 302 301 301 300 299 299 298 296 294 294 294 294 294 294 294 293 293 293 292 292 293 293 293 293 293 293 293 293 293 294 294
337 337 336 335 335 334 334 333 331 329 329 329 326 325 325 327 330 330 330 329 329 329 329 328 328 326 325 324 323 322 320 318 316 314 312 310 309 308 308 307 306 305 305 305 305 304 304 304 304 304 303 303 302 302 301 301 300 300 299 298 297 296 295 294 295 295 295 294 294 294 293 293 292 292 293 292 292 293 293 293 293 293 293 293 293
337 336 336 335 335 334 333 331 329 328 327 326 325 324 324 325 327 328 328 328 328 328 328 327 326 325 324 322 321 320 319 317 315 312 311 309 308 308 307 306 305 305 305 304 304 304 303 304 303 303 303 302 302 301 301 301 300 300 299 298 297 295 295 295 295 295 295 294 294 294 293 293 293 292 292 293 293 293 293 293 293 293 293 293 292
336 336 335 335 334 333 332 330 328 326 325 324 323 323 323 323 325 327 326 326 326 325 326 325 324 324 323 322 320 318 317 315 313 311 310 308 307 307 306 305 305 305 304 304 303 303 303 303 303 303 303 302 302 301 301 301 300 300 299 297 296 295 295 295 295 295 295 295 294 294 294 293 293 293 292 293 293 293 293 293 293 293 293 293 292
335 335 334 334 333 332 331 329 327 325 323 322 322 321 321 322 323 325 324 324 324 323 323 324 323 323 322 320 319 317 315 313 311 310 309 308 307 306 305 304 304 304 304 303 303 303 302 303 303 303 302 302 302 301 301 301 300 300 299 297 296 295 295 295 295 295 295 295 294 294 294 293 293 293 293 293 293 293 293 293 293 293 293 293 293
335 335 334 333 332 330 329 328 325 324 322 321 321 320 320 320 322 323 322 322 322 322 321 321 321 321 320 319 317 315 313 312 310 309 308 307 306 305 304 304 303 303 302 303 303 303 302 302 302 303 302 302 302 301 301 301 300 300 298 297 297 296 296 295 295 295 295 295 294 294 294 293 293 293 293 293 293 293 293 293 293 293 293 293 293
334 333 333 332 330 329 328 326 325 323 321 320 320 319 318 319 320 321 321 320 320 320 319 319 319 318 318 317 315 313 312 310 309 308 307 306 306 305 304 303 303 302 302 302 302 302 303 302 302 302 302 302 302 301 301 301 300 300 299 298 298 297 296 296 296 296 296 295 295 295 294 293 293 293 293 293 293 293 293 294 294 293 293 293 293
334 333 333 331 329 328 326 325 324 323 321 320 319 318 318 317 319 320 320 319 319 319 318 318 317 316 316 315 313 312 311 309 308 307 307 306 305 304 303 303 302 301 300 300 300 302 302 303 302 302 302 302 302 301 301 300 300 300 299 298 298 298 297 297 296 296 296 296 295 295 294 293 293 293 293 293 293 293 294 293 293 293 293 293 293
334 333 332 330 329 328 326 325 324 322 321 320 319 318 318 317 317 319 320 318 317 318 317 317 316 315 314 312 311 310 309 308 308 307 306 305 304 303 303 302 302 301 298 297 298 300 302 302 302 302 302 302 302 301 301 300 300 299 299 299 299 298 298 297 296 296 296 296 295 295 294 294 293 293 293 294 294 294 294 293 293 293 293 293 293
333 332 331 329 328 327 326 324 324 322 321 320 319 318 317 316 316 318 318 317 317 317 316 315 315 314 312 311 310 309 309 308 308 307 305 304 303 303 303 302 302 300 296 293 295 298 301 302 302 302 302 302 302 301 301 300 300 299 299 299 298 298 298 297 297 296 296 296 295 295 295 294 294 294 294 294 294 293 293 293 293 293 293 293 292
333 332 330 329 327 326 325 324 323 322 321 320 319 318 317 316 315 316 316 316 316 315 315 314 313 312 311 310 309 309 308 308 307 306 304 303 303 303 302 302 302 298 294 292 294 297 300 302 302 302 302 302 302 301 301 300 299 299 299 298 298 298 298 297 297 296 296 296 296 295 295 295 294 294 294 294 293 293 293 293 293 293 293 293 293
333 331 330 329 328 326 325 324 323 322 320 319 318 317 317 316 315 315 315 315 315 314 314 313 312 311 311 310 309 308 307 307 306 304 303 303 303 302 302 302 299 295 293 293 295 297 300 301 302 302 302 301 301 301 300 299 299 299 298 298 298 298 298 297 297 297 296 296 296 295 295 295 295 294 294 294 294 294 293 293 293 293 293 293 292
332 331 330 329 328 326 325 324 323 321 320 319 318 317 316 315 314 314 314 314 314 314 313 312 311 311 311 309 308 307 306 306 305 303 303 302 302 302 302 300 296 293 293 294 296 297 300 301 301 301 301 301 301 300 300 299 299 299 299 299 298 297 297 297 297 297 297 296 296 295 295 295 295 294 294 294 294 293 293 293 293 293 292 292 292
332 331 330 329 328 327 325 324 322 321 320 319 318 317 316 315 314 313 313 314 313 313 312 311 310 311 310 309 307 307 306 305 304 303 303 302 302 302 301 299 295 293 294 295 296 298 299 300 300 301 301 301 300 300 300 300 300 299 299 299 298 297 297 297 297 297 297 297 296 296 295 295 294 293 294 294 293 293 293 293 292 292 292 291 291
332 331 330 329 328 327 325 324 323 321 320 319 318 317 316 315 314 313 313 313 312 312 311 310 310 310 309 308 307 306 305 304 304 303 303 302 302 302 301 298 294 293 294 295 296 297 298 299 300 300 300 300 300 300 300 300 299 299 299 299 298 298 297 297 297 297 297 297 296 296 295 294 294 293 294 294 293 293 293 293 292 292 291 290 290
331 330 330 329 328 326 325 324 322 321 320 319 318 317 316 315 314 313 313 312 312 311 310 309 309 309 308 307 306 305 305 304 304 303 303 302 302 301 301 298 294 293 294 295 296 297 298 298 299 299 299 299 299 299 299 299 299 298 298 298 298 298 298 297 297 297 297 296 296 296 295 294 293 294 294 293 293 293 293 293 292 292 291 290 289
331 330 329 329 327 326 325 324 323 322 320 319 318 317 316 315 313 313 312 312 311 310 309 309 308 308 308 306 306 305 305 304 303 303 302 302 301 301 299 296 293 293 294 295 296 297 297 298 298 298 299 298 298 298 298 298 298 298 298 297 297 297 297 297 297 297 297 296 296 295 294 293 293 294 294 293 293 293 293 292 292 292 291 290 289
331 330 329 328 327 326 325 324 323 322 320 319 318 317 316 314 313 312 311 311 310 309 308 308 307 307 306 306 305 305 304 304 303 302 302 301 301 300 298 294 292 293 294 295 295 296 296 297 297 298 298 297 298 298 298 297 297 296 295 294 294 294 295 296 297 297 297 296 296 295 294 293 293 294 294 293 293 293 293 292 292 291 290 289 289
331 330 329 328 326 325 325 323 323 321 320 319 317 316 315 313 312 312 311 310 310 309 308 307 306 306 306 305 305 304 304 303 302 302 301 301 301 299 295 293 292 293 293 294 294 295 295 296 296 297 297 297 296 296 295 294 293 291 291 290 290 291 294 296 296 297 296 296 295 294 293 293 294 294 294 293 293 293 293 292 292 290 289 289 289
330 329 328 328 326 326 325 323 322 321 319 318 317 316 315 313 312 311 311 310 309 308 307 307 306 306 305 305 305 304 304 303 302 301 301 301 300 297 293 292 292 292 292 292 292 292 293 293 293 294 294 293 292 292 291 290 290 289 290 289 290 292 295 296 296 296 296 294 293 293 293 294 294 294 294 293 293 293 292 292 290 289 288 288 289
327 327 327 327 326 325 324 323 322 320 319 318 317 316 314 313 312 311 310 310 309 308 307 306 306 306 305 305 305 305 304 303 302 302 302 301 298 295 292 291 291 291 291 291 291 290 290 290 291 291 291 290 290 290 289 289 289 289 290 290 291 293 295 295 295 295 294 294 293 293 294 294 294 294 294 293 293 292 292 291 290 289 288 288 288
326 327 326 326 325 324 323 322 321 319 319 317 316 315 314 312 311 311 310 309 308 308 307 306 306 306 305 305 305 305 304 303 302 302 302 300 297 294 292 291 291 290 290 290 290 290 290 290 290 290 290 290 290 290 289 289 290 290 291 292 292 293 294 295 295 294 294 293 293 293 294 294 294 294 294 293 292 292 292 291 290 289 288 288 287
325 326 326 325 325 323 322 321 320 319 318 317 316 314 313 312 311 310 309 309 308 308 307 307 306 305 305 305 305 305 304 304 303 302 302 301 297 294 292 292 292 291 290 290 290 290 290 291 291 290 290 290 290 290 290 290 290 291 292 293 293 293 293 293 294 293 293 293 293 294 294 294 294 294 294 293 293 292 292 291 290 289 289 288 287
324 325 325 324 323 323 321 321 320 319 317 316 315 314 312 311 310 309 309 309 308 308 307 307 306 306 305 305 305 305 305 304 303 303 302 300 298 296 295 295 295 294 292 291 291 292 293 293 293 293 292 292 291 290 290 290 290 291 292 293 293 293 293 293 293 293 293 294 294 294 294 294 294 294 294 293 293 292 292 292 290 290 290 289 288
323 323 324 322 322 322 321 320 319 318 317 316 315 314 312 311 310 309 309 309 308 308 307 307 306 306 305 305 304 304 304 304 303 303 302 300 298 298 298 298 299 298 296 292 291 293 295 295 295 295 294 293 293 291 290 290 291 291 292 293 293 293 293 293 293 293 294 294 294 294 295 294 294 294 294 293 293 292 292 292 291 291 291 290 289
320 321 322 322 321 320 320 320 318 317 316 316 315 313 312 311 310 309 309 308 308 308 307 307 306 306 305 304 304 304 304 303 303 303 303 301 299 298 299 300 300 301 299 296 293 293 295 296 296 297 296 295 295 294 292 290 291 292 292 292 293 293 293 293 293 293 294 294 294 295 295 295 294 294 294 294 293 293 292 292 292 292 292 291 290
319 320 321 321 320 319 319 318 317 316 316 315 315 313 311 310 310 309 309 308 307 307 307 306 306 305 304 304 304 303 303 303 303 303 303 302 301 299 300 300 301 301 300 298 296 295 295 296 297 297 298 297 297 296 294 291 290 291 292 292 293 293 293 293 293 294 294 295 295 295 295 295 294 294 294 294 293 293 292 292 292 292 292 292 292
319 320 320 320 320 319 317 316 315 315 315 314 314 313 311 310 310 309 308 308 307 306 306 305 305 304 304 304 303 303 303 303 303 303 303 302 301 300 300 300 301 301 300 300 299 297 295 296 297 298 298 298 298 298 296 293 291 291 292 292 292 293 293 293 294 294 294 295 295 295 295 295 295 294 294 294 294 293 293 292 292 292 292 292 292
319 318 319 319 319 317 315 314 313 313 314 314 314 313 312 310 309 308 308 307 306 306 305 305 304 304 304 303 303 302 302 303 303 303 303 302 302 301 301 300 301 301 300 300 300 298 296 296 297 298 298 299 299 299 298 296 293 291 291 292 292 293 293 293 294 294 294 295 295 295 295 295 295 294 294 294 294 294 293 292 292 292 292 292 292
318 317 318 318 317 315 314 312 311 312 313 313 313 313 312 310 309 308 307 306 306 305 305 304 304 303 303 303 302 302 302 302 302 302 302 302 302 302 302 301 301 301 301 301 299 297 296 297 297 298 298 299 299 299 299 298 296 294 292 291 292 293 293 293 294 294 294 295 295 295 295 295 295 295 294 294 294 294 294 293 292 292 292 292 292
317 317 317 317 315 314 313 312 311 311 312 312 312 312 311 309 308 307 306 305 305 305 304 304 303 303 302 302 302 302 302 301 302 302 302 302 302 301 302 302 301 300 300 300 298 297 297 298 298 298 299 299 299 299 299 299 298 297 294 292 291 293 294 294 294 294 294 295 295 296 296 296 295 295 295 295 295 294 294 293 293 292 292 292 292
316 316 316 316 315 313 312 311 311 311 311 312 311 311 310 309 307 306 306 305 304 304 304 303 302 302 302 302 301 302 302 301 301 301 302 302 302 302 302 301 299 297 297 297 297 297 298 299 299 299 299 299 299 299 299 299 298 298 297 293 291 291 292 293 293 294 295 295 295 296 296 296 296 296 296 295 295 295 294 294 293 292 292 292 292
315 315 316 315 314 313 312 311 311 311 311 311 310 310 309 308 307 306 305 305 304 303 303 302 302 301 301 301 301 301 301 301 301 301 301 301 301 301 301 298 295 294 295 296 297 298 299 299 299 299 299 300 300 299 299 299 298 298 297 295 291 290 290 291 292 293 294 295 295 296 296 296 296 296 296 296 295 295 294 294 294 293 292 292 292
314 315 314 314 313 312 312 311 310 310 310 310 310 309 308 307 306 305 305 305 304 303 302 301 301 301 301 301 301 301 301 301 301 301 300 300 300 300 300 298 294 293 294 296 298 299 299 299 299 300 299 300 300 299 299 299 298 297 297 296 293 290 290 290 291 292 294 295 295 295 296 296 296 296 296 296 295 295 295 294 294 293 293 292 292
Wind_Speed
8 11 12 13 14 15 16 16 17 17 17 18 18 18 18 19 19 19 19 19 20 20 19 18 17 15 14 13 12 11 9 10 10 10 10 11 11 11 11 10 9 8 7 5 4 2 1 1 2 3 4 5 5 5 5 5 6 6 5 4 5 6 9 12 10 6 7 10 13 15 16 17 17 18 19 20 21 23 24 26 27 26 24 23 22
8 10 12 15 14 15 17 17 18 19 19 20 20 20 21 21 21 22 21 21 21 20 20 19 18 17 16 15 14 13 11 12 14 14 13 13 13 12 11 10 9 7 6 4 2 1 1 1 2 3 3 4 4 4 4 4 5 4 3 3 6 10 13 15 12 8 6 7 8 8 9 10 12 16 19 19 20 22 24 26 28 28 25 23 21
8 8 12 17 16 15 17 18 19 19 20 20 21 22 22 22 23 22 22 21 20 20 19 19 18 17 15 16 16 15 14 15 15 15 15 13 12 11 9 8 6 5 4 3 2 2 2 2 2 3 3 3 3 3 3 4 4 4 4 5 8 12 16 18 17 14 9 7 6 4 2 2 3 9 14 16 16 19 23 26 27 28 26 22 21
8 7 9 15 18 16 16 17 18 19 20 19 19 20 21 21 23 22 22 21 20 19 19 18 18 16 15 16 17 16 17 17 16 15 14 12 11 10 8 7 5 4 4 4 4 3 3 3 2 2 2 2 3 3 3 4 5 6 6 7 8 12 18 21 20 19 15 9 4 2 1 1 1 4 8 9 11 14 20 25 25 27 27 22 21
8 7 7 11 15 16 16 18 18 19 20 20 20 20 20 21 22 22 21 21 20 20 19 18 17 16 17 19 18 18 18 17 16 14 12 12 10 9 8 7 6 5 5 5 5 5 4 3 2 2 2 3 3 4 6 7 8 8 9 9 10 13 18 22 23 22 22 17 10 5 2 2 1 4 4 3 7 11 17 23 23 24 27 25 21
7 7 8 9 13 15 15 17 18 18 20 20 21 21 21 22 22 21 21 21 21 20 20 19 18 19 21 23 22 21 20 16 15 14 12 12 11 9 9 7 6 6 6 7 7 6 4 3 3 2 3 5 6 8 10 12 12 12 11 11 13 13 16 21 23 22 24 24 21 16 10 6 2 2 2 0 4 7 11 20 23 21 24 26 23
7 7 8 10 13 14 15 17 18 19 20 20 21 21 21 22 21 21 21 21 21 20 20 19 19 22 23 23 23 23 20 17 15 14 12 12 11 9 8 7 7 6 7 7 7 5 4 3 4 5 6 9 10 11 13 14 15 14 13 14 15 13 14 20 21 18 20 22 22 20 19 17 11 6 3 0 2 3 7 16 22 20 21 26 25
8 9 9 11 14 14 16 18 18 19 19 20 20 21 21 21 21 21 21 21 21 21 21 20 21 23 23 22 21 21 19 18 16 14 13 11 10 9 8 7 6 6 6 7 6 3 3 4 6 7 9 11 12 13 15 15 15 16 16 16 18 17 17 21 21 19 18 18 17 18 19 20 21 17 10 5 2 1 3 9 18 19 18 23 26
9 9 10 12 15 17 18 19 18 19 19 20 21 21 21 21 21 22 21 22 21 21 22 21 23 24 23 22 21 19 18 19 17 15 14 12 10 9 7 6 5 4 4 5 3 2 5 7 8 9 10 12 13 15 15 15 16 17 18 19 20 21 21 21 22 22 21 18 16 16 16 17 21 22 18 13 7 3 2 3 13 17 14 18 24
9 9 9 13 17 18 19 19 19 19 20 21 21 21 21 20 21 22 22 22 22 22 23 23 25 25 23 22 22 20 19 19 18 16 14 12 10 9 7 5 3 2 1 1 2 6 7 8 9 10 12 13 14 15 15 16 18 19 20 20 20 22 21 21 22 22 22 22 21 21 20 18 18 19 19 17 11 6 3 2 10 14 9 13 22
9 9 10 14 17 18 19 19 19 20 21 21 21 21 21 21 22 23 23 22 22 23 25 25 25 25 23 23 22 22 21 20 18 17 15 12 10 9 6 4 3 1 2 4 6 8 8 9 9 11 13 14 14 15 15 17 18 19 20 21 21 22 21 21 23 22 23 24 25 25 26 23 19 16 16 17 14 8 3 3 11 16 9 12 22
10 9 9 12 14 16 20 20 19 21 22 22 23 21 21 22 23 23 23 23 24 25 26 26 25 24 23 23 22 22 21 19 18 17 15 12 10 8 6 5 4 4 5 7 8 9 9 10 11 12 13 14 14 15 15 16 18 19 20 21 22 22 21 22 24 24 25 26 26 25 25 24 22 18 15 17 15 11 8 4 11 15 7 11 21
10 9 10 10 11 14 20 20 19 22 24 24 24 22 21 23 24 24 24 25 26 26 25 25 25 24 23 22 22 22 20 19 18 17 15 12 10 8 7 6 6 7 8 9 11 11 11 11 12 13 13 14 14 14 15 16 17 19 21 22 22 22 22 24 26 26 26 26 26 24 23 22 20 17 15 16 15 14 14 8 10 12 5 12 21
10 10 11 10 11 15 20 21 19 20 24 25 25 24 23 24 25 25 24 25 26 26 25 25 24 23 22 22 22 22 20 19 18 16 14 11 10 9 8 7 7 9 10 12 12 12 11 12 12 14 14 14 14 14 15 16 17 20 21 22 23 23 23 24 26 26 26 26 25 24 23 21 18 17 16 16 16 15 15 11 10 10 6 13 19
10 10 11 10 14 19 20 21 20 20 23 25 24 24 25 25 25 25 25 25 26 26 25 24 23 23 22 22 22 22 21 20 17 15 13 12 11 10 10 9 9 11 12 13 13 12 12 12 13 14 14 14 14 14 15 17 18 20 22 23 23 22 23 25 25 26 27 26 25 25 24 22 19 18 17 17 16 15 14 13 12 9 6 10 14
11 11 11 11 15 21 21 21 21 20 23 24 24 24 25 26 25 25 25 25 25 26 25 25 24 23 22 22 22 22 20 18 17 15 14 13 13 12 12 11 11 13 14 14 13 12 12 13 14 15 15 14 14 14 16 17 18 20 22 23 23 22 22 24 24 26 27 26 25 25 24 23 20 19 18 17 16 15 15 15 16 13 6 5 7
12 11 11 11 14 19 22 22 22 22 23 24 24 25 27 27 26 25 25 25 25 25 25 25 24 23 23 23 22 21 19 18 17 16 16 15 14 13 12 12 12 14 15 14 14 13 13 14 15 16 15 14 15 15 16 17 18 19 20 21 22 21 21 22 23 25 25 25 25 24 24 23 20 19 18 16 16 16 16 16 16 15 9 4 3
12 12 12 12 14 18 22 23 23 25 26 25 25 25 27 28 28 26 25 25 24 24 24 23 23 23 23 22 21 20 19 17 17 17 17 17 16 15 13 12 14 15 15 15 14 14 14 15 15 16 16 15 15 15 16 16 18 19 20 20 20 19 21 22 22 23 24 24 25 24 23 22 19 18 17 17 17 17 18 17 16 15 12 7 3
11 12 12 13 15 18 21 23 23 25 28 28 26 25 26 28 28 27 26 25 24 23 23 22 23 23 23 22 21 20 19 18 18 18 18 18 17 16 13 14 16 16 15 15 15 15 15 15 16 17 16 15 15 15 16 16 17 19 19 19 18 17 20 22 21 22 22 23 24 23 22 21 19 17 17 17 18 18 18 17 17 17 16 12 7
12 11 11 14 17 20 22 24 24 25 28 29 28 27 27 28 28 28 26 25 24 24 24 23 23 22 22 21 20 20 19 19 20 20 19 18 17 16 14 15 17 16 15 15 15 15 15 16 16 16 15 15 15 16 16 16 17 18 18 18 17 17 20 21 20 20 20 21 22 22 22 21 19 17 17 16 17 17 18 18 18 20 20 17 14
12 11 10 12 17 22 24 25 24 24 26 28 28 28 28 28 28 28 27 26 26 25 24 23 22 21 21 21 21 20 21 21 21 21 20 19 18 15 15 17 17 16 15 14 14 15 15 16 16 16 15 15 15 16 16 16 17 18 17 17 17 18 19 19 19 18 18 19 20 21 21 20 19 18 17 16 17 17 18 20 21 22 24 23 20
13 12 11 11 15 21 24 25 26 24 25 27 28 28 28 29 29 29 28 27 26 25 24 23 22 21 21 22 22 22 22 23 23 21 20 20 18 17 17 18 17 16 15 14 14 15 15 15 16 16 16 15 15 16 15 15 16 17 17 17 18 18 18 17 17 16 16 16 18 19 20 19 18 18 17 17 18 19 20 22 24 24 26 27 24
13 12 10 11 16 22 24 26 26 26 25 26 27 27 28 29 31 30 28 27 26 25 23 22 22 22 22 23 23 24 25 24 23 22 21 20 19 18 19 18 17 16 15 14 14 14 15 16 16 16 16 15 15 15 14 13 14 15 16 16 17 17 16 15 15 15 14 15 16 18 18 18 17 17 17 17 18 20 22 24 26 26 27 27 25
13 12 9 11 16 20 21 24 25 26 26 26 26 26 27 29 31 31 29 28 26 25 24 23 23 24 24 24 25 26 26 25 24 23 22 21 20 20 20 18 17 15 14 14 14 14 15 16 16 16 16 15 15 15 14 13 13 13 14 14 14 14 14 14 13 12 12 13 15 17 17 16 16 16 16 17 18 21 23 25 27 27 27 26 24
14 13 10 11 15 16 17 21 24 25 26 27 27 26 26 27 30 31 30 29 28 27 25 25 25 25 25 26 27 28 27 26 25 24 23 22 22 22 20 17 15 13 13 13 14 15 16 16 16 16 16 15 14 14 14 14 13 12 12 12 12 11 11 11 11 10 9 10 13 16 16 15 15 15 16 17 20 21 24 26 27 27 26 25 24
15 15 12 11 12 14 17 20 22 25 26 26 27 28 27 27 29 32 32 30 29 28 26 26 26 26 27 27 28 29 28 27 26 25 24 24 23 22 19 15 13 11 11 13 15 17 17 17 17 16 16 15 14 13 13 13 13 12 11 11 10 9 8 9 9 8 7 8 12 15 15 15 14 15 17 18 21 23 25 26 26 26 26 25 25
14 14 13 12 11 13 18 21 22 24 26 27 28 29 29 27 27 31 32 32 31 29 27 27 27 27 28 29 29 29 28 27 26 26 25 25 23 21 18 15 11 9 10 13 16 18 18 18 17 17 16 15 14 13 13 12 12 11 10 10 8 7 6 6 6 5 5 6 9 13 14 14 14 15 17 19 22 24 25 25 24 25 26 26 26
13 14 14 14 13 12 16 20 22 24 25 27 28 29 29 28 27 30 32 32 31 30 29 28 28 29 29 29 30 29 28 27 26 27 26 25 23 20 17 14 11 9 11 13 16 18 19 19 18 17 16 15 14 13 13 12 11 10 9 9 7 6 4 3 3 3 3 4 6 10 13 14 15 15 17 20 22 24 24 23 23 24 25 26 27
14 14 15 16 15 13 15 19 22 23 24 25 27 28 28 26 27 30 33 33 32 31 30 29 29 29 30 30 30 29 28 28 28 28 28 26 23 20 17 14 11 11 12 14 16 18 19 19 18 17 16 15 14 14 13 11 9 9 8 7 6 5 4 2 1 1 1 2 3 7 11 14 14 15 17 19 20 21 21 22 23 24 25 26 27
15 16 16 16 16 15 16 19 21 23 24 24 25 27 28 26 26 29 32 33 33 32 31 31 30 30 31 31 30 30 30 29 29 29 28 26 23 20 17 14 12 13 14 15 16 18 19 19 19 18 16 15 15 14 13 10 8 7 6 6 5 5 4 3 1 1 2 3 2 4 9 13 13 14 17 18 19 19 19 20 21 23 24 26 27
15 15 15 15 15 14 15 18 21 23 25 25 25 27 28 27 27 28 31 33 33 32 32 32 32 32 32 32 31 31 31 30 30 29 28 26 23 20 17 15 14 15 16 16 17 17 18 18 18 17 16 15 14 13 12 10 8 7 5 4 4 4 4 3 2 2 3 4 3 3 8 12 13 14 17 18 17 18 18 18 20 21 24 26 27
15 15 15 15 15 15 16 19 22 25 26 26 27 27 27 28 29 29 31 33 33 32 32 32 33 33 33 33 32 32 31 30 29 28 27 26 23 21 18 15 15 16 17 17 17 17 18 18 17 17 15 15 14 12 10 9 7 6 4 3 3 3 3 2 1 2 3 4 3 4 8 10 12 15 17 16 16 18 18 18 20 23 25 26 26
16 16 16 16 16 17 20 23 25 27 29 29 30 29 29 30 32 32 33 34 33 32 31 32 33 35 34 33 32 32 31 31 30 29 28 27 24 21 19 16 16 17 18 18 18 18 18 17 16 16 15 14 13 11 9 8 6 5 4 3 2 2 2 2 2 2 3 2 2 4 7 9 12 14 15 14 16 19 19 19 21 24 26 27 27
15 15 15 14 14 17 22 25 27 28 29 30 30 30 29 30 31 31 33 33 32 31 31 31 33 34 34 34 33 33 32 32 31 31 30 27 24 21 19 17 17 18 19 19 19 18 18 17 16 15 15 14 12 10 8 6 5 4 3 3 3 3 3 3 3 2 1 0 2 4 7 9 13 14 12 14 17 19 20 20 22 25 27 28 28
13 14 13 13 14 18 22 25 27 28 28 29 29 29 28 28 29 30 30 29 29 29 29 30 31 32 33 34 34 34 34 33 32 31 30 27 24 21 19 18 18 18 19 19 19 18 17 16 15 14 14 13 11 9 7 5 4 4 3 3 4 4 3 3 2 2 1 1 2 4 7 10 13 12 11 13 17 20 20 21 24 26 28 28 28
16 16 17 19 22 25 26 27 28 29 29 29 29 30 29 29 29 30 29 29 29 28 28 30 31 32 33 34 34 34 33 33 32 32 30 28 25 21 20 19 19 19 19 18 18 17 16 15 14 13 12 11 9 7 5 3 2 1 1 1 2 2 3 3 3 3 2 1 2 4 7 10 12 12 12 13 16 19 20 22 25 27 28 28 28
15 16 19 22 25 26 26 26 27 28 29 30 30 31 31 30 29 29 28 28 28 29 30 31 32 33 33 34 34 34 33 33 33 32 31 28 25 23 21 21 21 21 20 19 17 16 15 14 14 12 11 10 9 7 5 3 2 2 1 1 2 4 4 4 4 3 2 0 2 5 8 10 12 12 12 13 16 18 19 22 25 27 28 29 29
13 16 18 21 23 24 26 28 28 28 29 30 31 31 30 29 29 29 29 28 28 29 30 32 33 34 35 35 35 35 34 34 33 32 31 29 26 25 23 23 22 22 21 19 18 17 16 14 13 12 11 11 10 8 6 4 3 3 2 3 4 5 6 5 4 3 1 1 2 5 8 11 12 13 11 13 16 17 18 21 23 26 28 30 30
18 21 22 24 26 27 28 29 28 28 29 31 32 32 31 29 29 30 29 29 29 31 32 33 34 35 35 35 35 34 34 34 33 33 32 30 28 26 25 24 22 21 21 20 19 18 17 15 14 13 12 11 10 8 6 5 4 4 4 5 5 6 6 5 4 3 1 1 2 5 8 11 12 12 11 12 15 16 18 21 22 24 27 29 31
19 22 24 26 27 28 28 29 29 30 32 33 33 32 31 30 30 30 30 30 31 33 33 34 34 34 35 35 34 34 34 35 34 34 33 31 30 28 27 25 22 20 20 20 19 19 18 17 15 13 11 10 9 8 7 5 5 4 5 6 7 6 6 6 4 2 1 1 3 5 8 10 12 12 11 12 15 16 18 20 21 23 25 27 30
22 26 27 28 28 29 29 29 30 32 33 35 34 31 29 29 29 30 30 31 32 33 33 33 33 34 34 34 34 35 35 34 34 34 33 32 31 30 28 26 23 20 20 20 19 19 18 17 15 12 10 9 7 7 6 5 5 4 6 7 7 7 6 5 4 3 3 4 5 6 8 10 12 12 11 13 15 16 17 19 20 22 24 27 29
21 26 28 27 25 26 27 27 28 32 34 34 34 31 28 28 28 29 30 30 31 32 33 33 33 34 34 34 34 34 34 33 33 34 34 34 33 31 29 26 24 22 20 20 20 19 18 16 13 11 9 7 6 5 5 5 4 4 6 7 7 6 5 4 2 2 3 5 7 8 9 10 12 12 12 14 16 17 17 19 20 21 24 28 30
20 24 27 28 25 24 26 27 29 33 34 34 33 29 27 28 28 29 29 30 31 33 33 33 33 33 33 34 34 33 32 33 33 33 33 34 33 32 29 27 26 24 21 20 20 19 18 16 14 12 10 8 5 3 3 3 3 4 6 7 7 5 3 2 1 2 4 6 8 8 9 11 12 12 13 14 16 17 18 18 20 21 24 28 30
20 24 28 30 26 24 25 27 30 32 33 34 33 29 27 27 27 28 30 30 31 32 33 32 32 32 33 33 32 31 32 33 33 33 33 33 34 33 31 28 27 24 22 21 21 20 19 17 15 14 12 10 8 5 3 2 2 3 5 7 6 5 2 0 1 3 5 8 9 9 10 11 12 13 14 15 16 17 18 18 19 20 23 27 30
19 24 28 28 27 26 26 26 29 32 32 33 33 31 29 27 27 29 31 32 32 33 33 32 32 32 32 31 30 31 32 32 33 33 32 32 33 33 31 29 28 26 24 23 22 22 21 19 17 16 14 12 11 8 6 4 3 2 4 5 6 5 3 2 2 4 7 9 10 10 11 11 12 13 14 15 16 17 18 18 18 19 22 25 28
19 21 23 24 24 25 25 25 26 29 31 30 31 31 31 29 29 31 33 33 34 34 32 31 31 31 30 30 30 30 31 31 32 32 32 32 33 32 31 30 29 26 25 24 23 23 22 21 19 17 15 13 12 11 10 8 6 4 3 4 5 5 4 4 4 5 7 9 10 11 11 12 13 14 14 15 17 18 19 19 19 19 21 24 26
18 20 23 24 23 23 23 24 24 26 29 29 29 30 30 30 31 33 34 34 35 34 32 31 30 30 29 30 30 30 30 30 31 31 31 31 31 31 31 31 29 27 26 25 24 24 23 22 20 18 16 15 14 13 13 12 9 8 6 5 6 6 6 6 7 7 9 10 10 10 11 12 13 14 15 15 16 18 19 20 19 19 20 22 25
18 22 23 22 20 21 23 24 25 27 29 30 29 28 27 29 32 33 34 34 34 34 32 31 30 30 30 30 31 31 31 31 31 31 31 31 31 31 32 31 31 30 29 28 27 26 25 23 21 19 18 16 15 16 16 14 13 10 8 7 8 8 9 9 9 10 10 11 11 11 11 12 13 15 15 16 17 18 19 20 20 21 21 22 24
21 24 24 23 22 22 23 24 25 28 30 30 28 27 27 30 32 33 34 34 33 32 30 29 29 29 29 29 30 30 31 31 30 30 30 30 31 31 31 31 30 30 30 29 28 27 25 22 20 19 17 16 16 15 13 12 12 11 10 9 9 10 10 11 11 12 12 12 12 11 11 12 13 15 16 17 18 20 21 21 22 22 22 22 24
20 21 22 25 27 27 26 25 26 28 29 29 27 27 28 30 32 34 35 35 33 30 28 28 29 29 29 29 29 30 30 31 31 30 29 27 28 29 29 28 28 28 28 27 25 23 21 19 19 18 16 15 15 12 8 7 10 12 12 11 11 11 12 12 13 13 13 13 13 12 12 12 14 15 17 18 19 20 22 22 23 24 23 23 24
19 19 18 19 23 26 26 26 26 28 29 28 28 28 29 31 33 34 35 34 33 31 28 28 29 29 30 30 30 29 30 30 30 30 29 27 26 25 26 26 26 26 26 25 23 21 19 18 18 17 15 14 14 13 10 8 9 11 13 13 13 13 12 12 12 13 13 13 13 13 13 13 14 15 17 18 18 19 21 22 23 24 24 23 23
Wind_Direction
140 151 159 158 158 156 158 161 163 166 170 174 174 175 178 180 181 179 181 186 188 184 179 175 172 167 160 156 152 148 152 150 141 141 141 139 138 137 137 139 144 147 146 149 148 151 166 273 293 301 305 311 314 323 339 343 346 348 349 359 6 11 23 22 18 44 89 99 108 107 94 82 72 63 59 57 54 51 49 48 47 47 49 50 51
145 156 155 153 152 152 157 160 163 164 167 173 175 174 177 178 178 178 180 184 185 183 180 180 182 181 172 162 154 147 148 147 141 139 139 138 137 136 135 135 137 137 136 135 126 107 11 321 309 312 317 323 324 332 342 343 350 352 356 42 55 50 48 42 38 53 82 104 113 111 100 90 76 60 54 55 53 49 46 46 46 44 46 47 46
163 163 151 151 149 152 159 161 168 171 170 173 174 173 174 175 177 180 181 182 183 184 185 184 183 183 177 165 157 150 146 146 143 139 139 136 132 129 128 127 127 121 111 89 58 40 16 348 339 333 332 339 333 333 347 356 15 33 54 84 81 70 63 54 50 53 71 111 117 98 97 130 99 51 46 50 47 46 43 42 45 44 43 44 42
170 167 151 150 149 155 164 165 170 171 170 172 172 173 173 175 180 182 181 181 183 184 184 184 178 173 166 158 156 152 147 146 144 138 137 136 131 126 120 113 107 91 73 53 38 34 23 7 4 351 350 3 345 347 18 37 54 65 76 95 95 83 74 62 57 57 63 82 105 124 107 70 118 360 21 42 40 43 41 38 43 43 40 40 39
174 168 155 149 150 160 168 171 172 172 173 175 174 175 174 177 182 184 182 181 184 184 183 182 176 167 157 150 148 145 144 145 144 137 132 133 129 119 109 98 88 72 56 45 38 33 32 31 26 16 19 23 22 46 69 73 77 81 87 98 95 90 85 74 65 61 62 64 72 95 96 62 160 311 344 40 30 35 37 34 39 40 37 39 39
180 168 159 149 148 159 171 175 174 174 179 179 178 178 177 180 184 185 183 183 185 185 184 182 176 170 163 156 151 146 143 145 148 144 137 132 125 116 105 91 75 60 50 45 41 36 36 42 45 51 62 73 84 89 90 86 83 85 89 96 96 94 91 82 73 69 67 66 70 77 75 76 103 306 332 58 11 23 27 27 33 36 31 35 38
178 169 162 154 150 160 175 178 176 178 182 181 180 179 178 181 185 186 183 184 186 185 184 182 177 174 171 166 161 157 151 147 151 150 142 133 124 117 106 90 70 54 52 45 37 31 33 58 74 84 92 97 101 96 91 87 84 87 89 93 97 93 87 84 80 75 71 70 71 76 77 74 70 67 76 62 342 360 13 19 26 33 31 29 33
179 174 168 161 158 167 178 179 180 183 183 182 181 181 180 182 185 185 184 185 187 184 183 184 180 176 173 170 166 164 159 151 149 146 140 137 129 119 107 91 68 52 48 27 15 28 72 98 100 102 106 105 101 93 89 89 89 91 92 91 91 86 82 85 83 78 75 74 74 76 76 71 66 70 76 76 87 300 346 10 13 24 34 29 29
181 176 172 166 164 173 179 179 182 185 183 182 182 181 182 183 184 184 184 186 185 182 181 182 181 178 177 172 165 162 159 152 149 146 143 141 133 123 111 95 69 50 34 3 360 115 116 115 113 110 108 103 98 95 94 95 93 92 91 89 87 84 82 82 80 77 75 74 73 74 74 68 62 60 60 62 66 31 360 346 355 5 23 27 26
182 174 171 168 166 173 178 178 182 184 182 182 182 181 182 183 184 184 186 187 183 181 181 180 181 181 180 177 168 160 156 152 151 148 146 144 136 127 118 104 84 55 30 22 137 137 127 122 117 111 107 104 102 100 99 97 94 91 89 87 85 84 81 79 79 77 76 73 70 69 67 62 56 49 46 48 52 43 21 325 348 351 354 6 12
180 173 170 166 164 171 176 178 181 180 180 181 181 182 184 183 183 182 185 187 183 181 181 181 183 184 184 181 174 167 162 159 156 152 151 151 142 133 127 121 117 115 130 137 143 141 134 126 119 113 110 109 107 103 100 96 94 93 91 88 85 84 83 81 82 80 79 76 71 69 67 65 63 57 50 46 49 45 11 331 349 351 347 355 2
176 173 172 164 162 171 175 176 178 175 176 177 178 183 185 183 182 179 180 183 183 182 182 183 185 186 186 183 179 175 172 171 167 162 161 159 151 145 144 144 140 140 142 141 142 141 137 128 122 120 116 113 109 104 102 99 98 96 92 90 86 84 84 83 84 82 80 78 73 71 69 68 67 65 60 53 53 48 34 16 351 354 348 345 355
175 173 174 170 167 171 172 174 177 173 172 175 177 182 184 182 181 177 176 179 180 180 183 185 186 186 186 184 180 178 178 179 177 171 167 162 159 157 154 151 144 144 145 141 141 140 135 130 127 125 119 115 111 108 106 103 101 98 93 91 87 85 84 84 85 83 79 77 75 72 70 69 67 64 61 56 55 48 40 28 356 359 345 335 349
175 173 175 174 174 175 172 174 177 172 171 174 175 179 182 180 180 176 174 177 178 179 182 184 185 187 186 183 180 179 180 182 179 173 166 163 163 159 153 151 148 149 146 141 141 140 136 132 131 128 124 120 115 111 110 107 103 100 95 91 87 85 85 85 86 83 79 76 74 73 70 69 69 64 62 58 54 51 46 34 5 2 356 348 351
176 175 176 174 174 176 173 174 176 172 170 171 172 177 180 178 178 175 171 173 177 179 181 183 184 184 184 183 182 183 183 180 175 170 166 164 161 155 150 151 151 151 148 143 143 142 136 133 133 131 128 123 118 115 114 111 107 102 97 92 88 87 87 88 87 82 78 75 72 72 70 69 69 65 63 61 58 58 55 47 35 23 4 357 351
179 177 175 174 173 173 172 172 175 172 169 169 171 177 178 175 176 176 173 173 176 178 180 182 183 183 185 186 184 183 180 174 168 166 165 163 159 153 150 152 154 152 148 145 144 140 136 136 136 134 132 127 122 118 116 114 109 103 98 93 90 89 89 90 87 81 77 74 71 69 68 68 67 65 65 64 62 61 57 49 45 46 35 359 345
180 179 174 173 171 170 170 170 173 173 170 170 174 178 176 173 172 172 171 172 175 177 179 181 182 182 183 184 182 180 177 173 169 166 164 160 156 153 150 152 154 153 150 148 145 142 140 141 140 138 136 131 125 121 118 115 110 104 98 94 92 92 92 91 87 81 76 72 70 67 66 66 64 64 64 62 60 54 51 45 38 39 35 14 338
177 177 175 173 170 169 169 170 174 174 172 173 176 177 174 172 172 171 170 171 173 177 178 180 181 178 177 177 177 176 175 173 171 168 164 159 156 155 153 154 156 155 152 151 149 147 145 145 144 142 140 134 127 124 121 118 112 105 98 94 93 93 96 94 86 81 76 71 69 66 64 63 61 61 61 59 55 49 46 41 32 24 16 8 336
173 173 176 175 171 170 166 166 172 172 170 173 175 174 171 169 171 173 173 172 174 176 176 177 177 174 172 173 174 174 174 173 171 169 165 161 159 158 158 158 158 156 156 155 154 152 150 149 147 145 141 135 129 127 125 121 112 105 98 94 93 95 99 95 86 81 76 71 68 64 61 60 58 58 59 56 53 47 41 33 25 16 6 357 342
174 173 176 173 169 169 165 163 167 168 167 169 172 171 168 165 166 169 169 168 170 173 172 171 172 172 171 171 172 173 173 172 171 169 166 163 162 161 161 161 159 158 159 159 158 157 155 153 150 147 144 137 133 131 128 122 112 104 97 92 94 99 100 94 87 82 76 69 66 62 58 56 54 53 55 54 48 41 32 24 16 10 5 358 346
173 171 171 168 164 163 163 163 164 165 164 166 170 169 166 164 164 166 166 164 166 168 169 170 170 173 173 172 172 172 172 171 169 168 167 164 163 162 162 162 160 160 161 162 161 160 159 157 153 150 146 141 138 136 132 124 114 105 96 92 94 100 100 93 88 84 77 69 63 60 56 53 51 50 50 48 41 32 24 18 12 6 3 0 351
170 167 165 165 160 158 159 160 161 162 163 165 167 167 165 164 163 165 166 165 165 166 168 170 170 173 174 172 171 171 171 171 168 168 168 166 165 164 164 163 161 161 164 166 165 162 161 160 157 153 149 145 142 140 137 128 117 108 100 95 94 98 99 93 88 83 77 69 61 57 54 50 48 49 47 42 32 23 17 12 8 4 360 359 356
164 160 160 161 157 156 157 159 160 163 164 165 167 167 167 165 164 165 165 165 166 167 168 170 171 173 173 172 172 172 171 171 170 170 169 167 167 166 165 165 163 162 165 169 169 166 164 163 160 156 152 148 145 144 141 133 121 112 105 101 96 94 95 92 87 83 77 68 59 54 50 47 47 46 42 35 25 17 11 6 4 2 357 356 357
159 156 156 155 152 151 156 160 161 163 165 167 167 167 167 165 163 164 166 166 167 167 169 171 172 172 171 172 173 172 172 172 171 171 170 169 168 166 165 165 163 163 167 172 173 171 169 166 162 158 155 151 149 147 145 138 127 116 109 107 102 95 92 89 87 84 77 67 57 51 46 44 43 41 34 25 17 10 5 2 0 359 356 352 351
159 155 153 155 153 150 157 164 163 164 167 168 167 168 168 165 163 164 165 167 168 169 171 174 173 170 171 174 173 172 172 172 171 171 171 170 168 165 165 166 164 165 171 176 178 175 173 170 165 161 158 155 153 151 150 144 134 123 115 110 106 99 92 88 86 83 77 67 55 47 43 41 37 31 24 13 7 3 360 358 358 356 354 349 345
162 157 152 156 157 153 158 167 167 166 168 168 168 169 169 169 167 165 166 167 168 171 173 175 174 172 172 173 172 172 174 173 172 172 172 170 168 166 165 165 165 168 173 178 181 178 176 173 167 164 163 159 157 156 155 150 143 134 123 116 112 105 96 90 87 83 76 66 54 45 39 37 30 20 14 6 1 359 357 356 357 355 351 346 342
162 157 153 154 158 158 162 168 170 169 169 169 169 169 170 171 168 166 167 169 169 172 174 175 175 174 173 172 173 174 174 173 174 173 171 170 168 167 165 162 165 172 176 178 179 177 175 173 168 165 164 163 160 160 159 155 149 141 130 124 121 116 106 98 95 87 75 65 53 43 37 33 27 18 10 5 1 358 355 354 355 352 348 344 342
161 159 157 158 162 165 165 168 170 171 171 170 170 170 171 172 169 166 167 169 170 171 173 175 176 174 173 173 174 175 175 174 174 172 171 169 167 166 164 162 164 172 174 173 174 174 172 170 168 166 165 163 162 163 161 155 149 142 135 130 128 128 123 117 118 100 70 62 50 39 34 28 22 15 7 3 360 355 351 351 351 349 346 345 343
163 163 163 164 166 168 169 170 170 170 170 170 169 169 171 172 171 168 168 170 171 172 173 175 176 174 174 174 175 175 175 174 173 171 170 168 166 164 162 161 164 169 169 167 168 170 169 167 166 165 164 163 163 163 162 158 151 143 136 131 132 138 143 161 165 131 14 26 39 29 24 20 13 7 2 358 356 354 351 350 349 348 347 345 343
168 169 170 169 168 168 169 168 169 169 170 170 170 169 170 172 172 169 167 169 172 172 173 175 175 175 176 176 175 175 174 173 172 171 169 167 165 163 161 161 162 166 165 163 163 166 167 167 165 164 164 163 164 165 164 165 161 154 146 135 137 140 150 184 230 272 287 311 339 1 7 6 1 358 356 354 355 354 353 350 347 347 347 345 341
173 173 173 172 170 168 168 170 172 172 171 172 173 171 171 172 173 171 169 170 173 174 174 175 175 176 177 176 175 174 173 172 172 169 167 167 166 163 161 161 162 163 162 161 161 162 164 166 165 164 163 163 164 166 167 170 170 167 165 153 153 155 150 171 231 279 287 298 301 324 350 353 353 353 351 352 355 353 350 348 346 346 345 344 342
175 174 174 174 172 171 173 175 174 173 174 175 174 171 170 172 174 175 173 172 174 175 174 174 174 174 176 176 175 173 170 170 170 168 168 169 168 164 161 162 163 163 162 161 162 161 162 164 164 163 162 163 163 163 166 171 171 169 169 160 162 169 164 173 249 311 312 303 292 319 340 344 350 351 347 348 352 349 346 346 345 345 346 348 349
177 177 176 176 176 175 175 175 175 176 178 177 175 173 174 176 178 178 176 174 175 176 174 173 172 173 175 175 173 171 170 171 172 172 172 171 169 165 162 164 164 163 162 162 163 162 161 162 164 163 161 161 161 161 163 169 170 169 172 172 177 191 202 235 277 315 329 311 279 317 334 342 349 348 345 348 349 344 342 343 343 344 348 352 354
178 179 178 178 176 174 174 176 178 180 178 177 177 177 178 179 179 177 175 174 175 174 174 173 172 173 174 174 172 171 171 173 174 173 172 171 169 166 163 165 165 162 162 163 164 164 162 163 165 164 162 161 160 161 166 172 179 191 207 224 241 248 245 253 267 291 319 266 271 313 333 344 347 346 345 347 346 341 340 341 342 345 349 353 355
180 179 178 176 172 172 175 178 179 179 176 175 176 176 176 176 176 176 175 174 172 170 171 172 171 172 173 172 172 172 172 174 173 172 172 170 169 166 164 165 165 162 162 162 162 163 163 164 167 167 165 164 162 165 175 188 201 218 237 248 251 248 240 236 239 231 194 212 283 321 338 343 345 347 345 344 343 340 339 340 343 345 348 353 355
183 180 179 178 177 177 178 178 177 176 174 173 174 175 174 173 175 176 174 173 171 168 169 170 170 172 173 173 173 172 172 173 172 171 171 170 168 166 165 163 160 158 159 160 159 160 161 161 166 169 169 165 164 169 177 184 194 208 237 243 220 200 190 185 186 179 169 221 306 336 342 343 348 350 346 343 341 339 339 341 344 345 348 352 355
181 180 180 179 179 178 175 174 173 173 173 173 173 174 172 171 172 173 172 171 170 169 170 171 172 173 174 174 174 174 173 172 172 171 171 170 168 166 163 160 157 155 157 158 156 155 156 157 158 163 164 158 153 151 146 137 120 95 88 134 155 161 161 158 163 167 163 258 325 344 346 347 350 347 343 342 340 339 342 345 345 346 348 350 352
166 167 170 173 175 173 172 172 171 172 174 173 173 173 171 168 169 171 171 170 170 172 173 173 174 175 175 176 177 177 174 172 172 173 171 170 168 166 162 160 158 155 154 154 152 150 150 150 150 152 151 145 140 135 129 117 95 79 85 109 135 151 156 155 160 167 173 278 322 343 349 349 346 341 340 343 342 341 346 349 348 347 347 347 349
169 169 169 170 171 170 170 171 170 171 173 173 173 173 170 168 170 171 171 172 174 176 176 176 176 176 176 177 178 178 176 175 175 175 174 172 170 166 163 160 157 155 153 153 152 150 148 146 145 143 140 137 132 127 122 107 86 83 95 107 120 136 146 150 158 171 186 259 314 336 346 346 341 337 336 341 344 346 349 353 353 351 348 347 347
168 170 169 168 167 166 167 170 172 172 173 173 173 172 170 171 172 172 174 177 179 179 177 177 177 176 177 178 179 180 180 180 179 178 176 175 173 169 164 161 158 157 157 157 155 151 148 145 144 142 139 135 128 121 113 98 86 95 113 117 118 125 131 133 131 126 105 359 333 332 339 341 337 334 332 337 344 349 351 354 357 356 351 348 348
165 167 167 166 168 169 171 173 174 172 172 173 173 172 172 173 172 174 179 182 180 178 177 177 177 177 178 180 181 183 183 183 182 180 178 178 177 175 170 167 166 165 165 164 162 158 154 151 150 150 146 140 131 118 106 94 90 110 129 131 128 127 126 121 106 78 42 9 349 339 337 337 336 334 332 336 344 348 350 353 358 359 357 354 353
163 165 166 164 166 170 171 172 173 172 172 173 173 173 173 172 173 180 183 180 177 176 177 177 177 178 180 180 182 183 184 183 183 182 180 180 180 180 177 174 174 175 174 174 171 168 165 164 164 165 161 154 144 124 106 98 95 117 137 139 135 130 123 113 96 54 18 358 346 341 337 333 334 335 333 335 341 345 347 351 356 359 1 0 360
160 163 166 165 165 169 170 170 172 173 173 175 175 173 172 173 178 183 181 177 177 177 176 177 178 179 180 181 182 183 182 182 183 184 184 183 183 183 182 181 180 180 181 182 181 179 179 181 183 186 185 181 172 153 127 112 106 122 143 148 144 140 134 111 64 11 355 346 338 335 333 329 329 333 334 336 340 342 343 347 353 358 1 2 2
162 165 168 167 166 168 168 168 171 173 174 177 176 173 172 176 181 180 176 175 176 175 175 176 178 179 180 181 182 182 182 184 185 185 186 185 185 185 185 185 184 185 189 191 190 190 191 193 197 200 200 201 201 199 197 176 136 134 147 157 161 162 164 174 341 340 339 338 332 327 326 324 324 328 333 336 339 341 342 344 350 355 359 0 1
165 168 171 170 167 165 163 164 170 173 175 178 178 175 174 178 179 177 175 175 175 174 175 176 177 178 180 181 182 182 183 185 186 187 187 186 185 185 186 187 187 190 196 198 196 197 199 201 206 208 207 209 213 215 220 224 217 187 164 170 180 186 199 239 290 316 325 330 328 322 320 321 320 322 328 333 338 342 342 343 346 351 355 358 360
164 167 169 166 162 160 159 159 166 172 174 176 179 180 179 179 178 177 177 176 174 173 175 176 177 179 180 180 180 180 183 186 187 188 190 189 187 187 187 188 190 195 199 201 200 201 204 207 212 215 216 219 222 226 230 232 232 231 214 195 195 200 216 247 276 299 313 321 322 317 315 317 317 317 321 328 335 340 343 343 344 347 351 355 358
164 163 163 161 158 158 158 157 161 170 173 175 180 184 183 180 177 176 176 175 173 174 175 175 176 178 179 180 180 180 182 184 185 186 188 189 191 191 189 189 192 197 200 203 203 203 206 211 215 220 224 227 230 234 238 237 235 237 236 224 215 215 226 248 270 286 301 313 316 312 309 312 315 316 319 324 330 335 339 342 345 347 349 352 355
159 161 161 159 156 157 158 159 163 169 174 177 180 183 181 178 175 175 175 173 173 175 175 176 176 177 178 180 181 181 182 183 185 186 187 189 191 192 193 195 199 201 201 200 202 205 208 212 216 220 226 231 237 242 244 242 239 237 238 235 231 228 234 248 265 277 290 304 311 308 305 307 312 317 320 324 328 332 336 341 344 347 348 350 352
160 162 162 159 158 161 162 163 167 171 174 177 178 178 179 178 176 175 174 173 173 175 175 175 176 177 178 179 181 183 184 185 185 186 190 194 197 198 200 203 206 205 202 200 201 205 209 214 219 223 229 236 243 247 248 248 244 240 238 241 242 240 241 249 260 271 282 296 305 307 307 309 315 320 323 325 328 331 335 340 344 347 348 349 350
159 163 166 165 165 166 166 167 170 172 174 175 175 176 179 178 177 176 175 174 173 172 172 174 175 176 178 180 182 184 186 186 186 186 188 194 199 203 206 207 206 206 204 204 205 208 212 217 223 228 234 241 248 252 254 252 246 239 236 239 244 245 246 251 258 267 277 288 297 303 306 312 318 322 323 326 327 328 332 337 342 345 347 348 348
157 159 161 162 162 162 164 166 170 173 174 174 175 176 177 177 177 177 177 176 173 171 171 175 177 179 182 183 184 185 185 185 186 187 187 189 193 198 204 207 207 207 209 211 216 220 224 228 232 237 243 249 254 256 253 244 238 235 233 237 243 245 246 251 258 264 271 280 291 297 300 308 316 319 321 324 324 323 327 333 337 341 345 348 347